Regional Weather Roundup
Issued by NWS Grand Forks, ND

Home | Current Version | Previous Version | Text Only | Print | Product List | Glossary On
Versions: 1 2 3 4 5 6 7 8 9 10 11 12 13 14 15 16 17 18 19 20 21 22 23 24 25 26 27 28 29 30 31 32 33 34 35 36 37 38 39 40 41 42 43 44 45 46 47 48 49 50
000
ASUS43 KFGF 271431
RWRFGF
PRAIRIE TO PINES  WEATHER ROUNDUP
NATIONAL WEATHER SERVICE EASTERN NORTH DAKOTA/GRAND FORKS ND
900 AM CDT SAT MAY 27 2017

 **SATELLITE DATA USED TO AUGMENT SKY COVER AT AUTOMATED STATIONS**
 *****  WEATHER ACROSS EASTERN NORTH DAKOTA  *****

CITY           SKY/WX    TMP DP  RH WIND       PRES   REMARKS
GRAND FORKS    FAIR      64  46  52 W12       29.77S
GRAND FRKS AFB FAIR      64  45  50 W8        29.78S
DEVILS LAKE    FAIR      58  44  60 W18       29.82R
FARGO          FAIR      63  46  54 SW9       29.82S
WAHPETON ARPT  FAIR      68  43  40 W17       29.85S
$$

 ***** WEATHER ACROSS CENTRAL AND WESTERN NORTH DAKOTA  *****

CITY           SKY/WX    TMP DP  RH WIND       PRES   REMARKS
BISMARCK       FAIR      59  41  51 VRB3      29.89S
MINOT          FAIR      60  42  51 W12       29.81S
JAMESTOWN      FAIR      62  44  51 W10       29.84S
MINOT AFB      FAIR      61  42  50 W16       29.80S
GARRISON         N/A     57  41  55 W17       29.85S
WILLISTON      FAIR      59  42  53 W13       29.87R
DICKINSON      CLOUDY    54  37  52 W13       29.91S
HETTINGER      FAIR      56  39  53 W12       29.96S
$$

 *****  OTHER AIRPORT OBSERVATIONS IN OUR AREA  *****

CITY           SKY/WX    TMP DP  RH WIND       PRES   REMARKS
WALHALLA       NOT AVBL
GRAFTON AIRPOR FAIR      64  46  52 SW12      29.77S
VALLEY CITY AR FAIR      63  45  51 W9        29.85S
CANDO          NOT AVBL
CAVALIER APRT  FAIR      63  45  51 W12       29.73S
GWINNER        SUNNY     64  45  48 MISG      29.86S
SHEYENNE NWR     N/A     64  47  53 W8        29.95S
ROLLA          FAIR      61  41  48 W10       29.77S
 ***** THE ABOVE OBSERVATIONS ARE NON NWS ARE NOT QUALITY
       CONTROLLED AND MAY MIS-REPORT RAIN FOR SNOW...
$$

  *****  WEATHER ACROSS NORTHERN MINNESOTA  *****

CITY           SKY/WX    TMP DP  RH WIND       PRES   REMARKS
FLAG ISLAND    FAIR      55  46  71 CALM      29.73F
WARROAD        FAIR      61  48  63 SW7       29.75S
ROSEAU         FAIR      63  48  59 SW10      29.75S
HALLOCK        FAIR      63  46  55 SW6       29.74S
THF RVR FALLS  FAIR      59  43  55 SW8       29.79F
BAUDETTE       FAIR      60  47  61 S6        29.77S
WASKISH        PTSUNNY   61  46  59 SW7       29.80S
CROOKSTON      FAIR      63  45  51 W9        29.79F
STEPHEN NDAWN    N/A     63  46  55 SW7         N/A
GREENBUSH NDAW   N/A     61  45  55 SW9         N/A
$$
  *****  WEATHER ACROSS CENTRAL AND WEST MINNESOTA  *****

CITY           SKY/WX    TMP DP  RH WIND       PRES   REMARKS
FOSSTON        FAIR      61  43  51 S9        29.82S
BEMIDJI        FAIR      63  44  49 SW9       29.82R
PARK RAPIDS    FAIR      61  44  53 SW10      29.85S
ELBOW LAKE     FAIR      61  50  65 W7        29.88S
WADENA         FAIR      61  48  63 SW7       29.86S
DETROIT LAKES  FAIR      63  45  51 SW7       29.85S
MOORHEAD       FAIR      64  43  45 SW7       29.84S
FERGUS FALLS   FAIR      63  48  59 SW5       29.85S
MORRIS MN      FAIR      63  50  63 SW5       29.88R
STAPLES        FAIR      61  45  55 SW6       29.86F
$$
  *****  WEATHER ELSEWHERE ACROSS MINNESOTA  *****

CITY           SKY/WX    TMP DP  RH WIND       PRES   REMARKS
DULUTH         FAIR      63  45  51 NW9       29.85R
INTRNTL FALLS  FAIR      62  45  53 W9        29.79R
ELY            FAIR      55  46  71 SW6       29.83R
CLOQUET        FAIR      64  43  45 W6        29.86R
WHEATON        FAIR      64  45  48 SW12      29.88S
BRAINERD       FAIR      58  47  66 SW6       29.88R
HIBBING        FAIR      56  49  77 W5        29.85R
ALEXANDRIA     FAIR      59  48  67 SW7       29.89S
SAINT CLOUD    FAIR      65  49  56 NW3       29.89S
MINNEAPOLIS    FAIR      67  46  47 NW8       29.89R
$$

  *****  WEATHER ACROSS SOUTH DAKOTA  *****

CITY           SKY/WX    TMP DP  RH WIND       PRES   REMARKS
SIOUX FALLS    LGT RAIN  57  54  89 SW3       29.93F
BROOKINGS      FAIR      59  50  72 S7        29.93S
WATERTOWN      FAIR      58  50  75 S6        29.90F
HURON          PTSUNNY   62  49  62 W7        29.92R
SISSETON         N/A     67  48  50 W12       29.86S
ABERDEEN       FAIR      65  40  39 W13       29.90R
MITCHELL       CLOUDY    59  52  77 S6        29.94R
PIERRE         LGT RAIN  54  51  90 SE6       29.96S
MOBRIDGE       CLOUDY    60  44  55 W9        29.90R
RAPID CITY     FAIR      56  46  69 W7        30.01R
$$

  *****  SOME WEATHER IN NEARBY STATES *****

CITY           SKY/WX    TMP DP  RH WIND       PRES   REMARKS
GLASGOW MT     CLOUDY    54  41  61 W7        29.91R
GREAT FALLS MT FAIR      53  38  56 SW14      30.06R
CHEYENNE WY    PTSUNNY   45  40  82 N10       30.09R
SCOTTSBLUFF NE FAIR      54  46  74 N13       30.05F
OMAHA NE       TSTM      60  51  72 SW22G30   29.95R
DES MOINES IA  CLOUDY    68  62  81 CALM      29.89R
DAVENPORT IA   CLOUDY    58  57  97 E6        29.92R FOG
CHICAGO IL     FAIR      62  53  72 CALM      29.92S
EAU CLAIRE WI  FAIR      64  52  64 W6        29.87R
LA CROSSE WI   FAIR      64  59  83 S9        29.88R
$$

  *****  SOME NATIONAL WEATHER *****

CITY           SKY/WX    TMP DP  RH WIND       PRES   REMARKS
LA GUARDIA NY  PTSUNNY   68  53  58 NW5       29.87S
RALEIGH NC     FAIR      76  63  64 VRB3      29.96S
ATLANTA GA     PTSUNNY   76  60  57 SW8       30.06R
NEW ORLEANS LA PTSUNNY   82  75  79 S10       30.04R
OKLAHOMA CITY  FAIR      77  71  82 S20G28    29.75S
ALBUQUERQUE NM FAIR      61  15  16 S7        30.10R
SALT LAKE CITY FAIR      52  40  63 W3        30.19R
LOS ANGELES CA PTSUNNY   60  53  77 W10       30.03R
BOISE ID       FAIR      53  40  61 SE12      30.16R
SEATTLE WA     FAIR      60  48  64 CALM      30.07R
$$

*** WEATHER ACROSS MANITOBA...SASKATCHEWAN AND ONTARIO ***
                ***ONTARIO***

CITY           SKY/WX    TMP DP  RH WIND       PRES   REMARKS
GERALDTON      PTSUNNY   61  55  82 S10       29.78F
THUNDER BAY    PTSUNNY   55  50  82 SW7       29.78F
SIOUX LOOKOUT  PTSUNNY   57  50  77 S7        29.74R
TORONTO        PTSUNNY   63  55  77 NE5       29.90S
BIG TROUT LK   SUNNY     59  52  77 SW6       29.66R
PICKLE LAKE    PTSUNNY   59  52  77 VRB5      29.70S
DRYDEN         SUNNY     61  48  63 W8        29.74S
KENORA         PTSUNNY   55  46  71 S8        29.75R
$$
                *** MANITOBA***

CITY           SKY/WX    TMP DP  RH WIND       PRES   REMARKS
BRANDON        MOSUNNY   54  45  71 W13       29.73S
DAUPHIN        CLOUDY    57  46  67 W15       29.68R
ISLAND LAKE    CLOUDY    55  48  76 S8        29.61S
PILOT MOUND      N/A     57  45  62 W8          N/A
THE PAS        CLOUDY    50  48  93 NW9       29.59R
THOMPSON       FOG       48  48 100 NE10      29.55R VSB 1/2
WINNIPEG       MOSUNNY   61  46  59 SW6       29.71S
LYNN LAKE      CLOUDY    41  39  93 NE14      29.64S
CHURCHILL      CLOUDY    36  36 100 NE10      29.69R
GILLAM         FOG       45  45 100 NE6       29.59R VSB 1/8
$$
                ***SASKATCHEWAN***

CITY           SKY/WX    TMP DP  RH WIND       PRES   REMARKS
ESTEVAN        MOSUNNY   59  45  58 W18       29.80S
KINDERSLEY     PTSUNNY   54  46  76 W9        29.85R
LLOYDMINSTER   PTSUNNY   54  45  71 W8        29.85R
PRINCE ALBERT  MOSUNNY   55  45  67 N10G17    29.76R
REGINA         PTSUNNY   55  45  67 NW8       29.80S
YORKTON          N/A     55  45  67 W15       29.72S
N. BATTLEFORD  CLOUDY    54  43  66 NW10      29.83R
LA RONGE       CLOUDY    52  46  82 NW13      29.72R
SASKATOON      PTSUNNY   52  43  71 W6        29.79S
SWIFT CURRENT  SUNNY     55  45  67 W12       29.86R
$$
NOTE: THESE ARE AUTOMATED STATIONS WITH LIMITED QUALITY CONTROL
      "FAIR" INDICATES FEW OR NO CLOUDS BELOW 12,000 FEET WITH NO
      SIGNIFICANT WEATHER AND/OR OBSTRUCTIONS TO VISIBILITY.
      SKY/WX - SKY CONDITION AND SIGNIFICANT WEATHER.
      TMP - AIR TEMPERATURE.    DP   - DEWPOINT TEMPERATURE.
      RH  - RELATIVE HUMIDITY.  PRES - PRESSURE.
      HX  - HEAT INDEX.         WCI  - WIND CHILL INDEX.
$




USA.gov is the U.S. government's official web portal to all federal, state and local government web resources and services.